FW4300 Weather Reports


Display with metric or nautical units.
time (UTC)temp
F
wind
direction
speed
MPH
gust
MPH
rain 1hr
in
rain 24hr
in
rain mn
in
humidity
%
barometer
mb
20260902143108 86 166 0.0 1.0 0.00 0.00 0.00 60 1018.4
20260902142600 86 140 0.0 0.0 0.00 0.00 0.00 60 1018.4
20260902142101 86 67 0.0 2.0 0.00 0.00 0.00 60 1018.4
20260902141600 86 115 0.0 2.0 0.00 0.00 0.00 60 1018.5
20260902141100 87 110 0.0 0.0 0.00 0.00 0.00 60 1018.6
20260902140559 87 160 0.0 0.0 0.00 0.00 0.00 59 1018.6
20260902140057 86 96 0.0 0.0 0.00 0.00 0.00 60 1018.7
20260902135557 86 147 0.0 0.0 0.00 0.00 0.00 60 1018.7
20260902135058 86 89 0.0 0.0 0.00 0.00 0.00 59 1018.7
20260902134605 86 137 0.0 0.0 0.00 0.00 0.00 59 1018.7
20260902134057 86 139 0.0 0.0 0.00 0.00 0.00 59 1018.7
20260902133555 86 110 0.0 0.0 0.00 0.00 0.00 59 1018.7
20260902133102 86 166 0.0 0.0 0.00 0.00 0.00 60 1018.6
20260902132555 86 139 0.0 0.0 0.00 0.00 0.00 60 1018.5
20260902132054 86 174 0.0 0.0 0.00 0.00 0.00 61 1018.5
20260902131603 86 152 0.0 0.0 0.00 0.00 0.00 62 1018.6
20260902131057 86 108 0.0 0.0 0.00 0.00 0.00 62 1018.6
20260902130553 86 117 0.0 0.0 0.00 0.00 0.00 61 1018.5
20260902130052 87 106 0.0 4.0 0.00 0.00 0.00 62 1018.5
20260902125555 86 117 0.0 4.0 0.00 0.00 0.00 63 1018.4
20260902125053 85 150 0.0 4.0 0.00 0.00 0.00 65 1018.4
20260902124549 85 156 0.0 0.0 0.00 0.00 0.00 65 1018.3
20260902124047 84 127 0.0 0.0 0.00 0.00 0.00 66 1018.3
20260902123545 82 324 0.0 0.0 0.00 0.00 0.00 66 1018.3
20260902123044 81 334 0.0 0.0 0.00 0.00 0.00 67 1018.3
20260902122542 80 309 0.0 0.0 0.00 0.00 0.00 67 1018.2
20260902122043 80 307 0.0 0.0 0.00 0.00 0.00 67 1018.3
20260902121547 80 312 0.0 0.0 0.00 0.00 0.00 68 1018.2
20260902121039 79 335 0.0 0.0 0.00 0.00 0.00 68 1018.3
20260902120538 79 342 0.0 0.0 0.00 0.00 0.00 69 1018.2
20260902120041 79 321 0.0 0.0 0.00 0.00 0.00 70 1018.1
20260902115537 78 314 0.0 0.0 0.00 0.00 0.00 70 1018.0
20260902115036 78 359 0.0 0.0 0.00 0.00 0.00 71 1017.9
20260902114541 78 344 0.0 1.0 0.00 0.00 0.00 72 1017.9
20260902114033 77 326 0.0 1.0 0.00 0.00 0.00 72 1017.9
20260902113532 77 331 0.0 4.0 0.00 0.00 0.00 74 1017.8
20260902113031 77 338 0.0 4.0 0.00 0.00 0.00 75 1017.8
20260902112533 76 350 0.0 4.0 0.00 0.00 0.00 76 1017.7
20260902112029 76 345 0.0 4.0 0.00 0.00 0.00 77 1017.7
20260902111530 76 351 0.0 3.0 0.00 0.00 0.00 77 1017.7
20260902111026 75 6 0.0 4.0 0.00 0.00 0.00 77 1017.6
20260902110527 75 315 0.0 4.0 0.00 0.00 0.00 77 1017.6
20260902110032 75 330 0.0 3.0 0.00 0.00 0.00 77 1017.6
20260902105525 74 12 0.0 0.0 0.00 0.00 0.00 77 1017.6
20260902105025 74 326 0.0 0.0 0.00 0.00 0.00 78 1017.5
20260902104543 74 331 0.0 0.0 0.00 0.00 0.00 78 1017.4
20260902104024 74 333 0.0 0.0 0.00 0.00 0.00 78 1017.4
20260902103523 0 0.0 0.0 0.00 0.00 0.00 1017.3
20260902103021 0 0.0 0.0 0.00 0.00 0.00 1017.3
20260902102519 0 0.0 0.0 0.00 0.00 0.00 1017.4
20260902102018 0 0.0 0.0 0.00 0.00 0.00 1017.3
20260902101516 0 0.0 0.0 0.00 0.00 0.00 1017.3
20260902101016 0 0.0 0.0 0.00 0.00 0.00 1017.3
20260902100514 0 0.0 0.0 0.00 0.00 0.00 1017.3
20260902100012 0 0.0 0.0 0.00 0.00 0.00 1017.3
20260902095510 0 0.0 0.0 0.00 0.00 0.00 1017.0
20260902095009 0 0.0 0.0 0.00 0.00 0.00 1017.1
20260902094508 0 0.0 0.0 0.00 0.00 0.00 1017.1
20260902094006 0 0.0 0.0 0.00 0.00 0.00 1017.0
20260902093505 0 0.0 0.0 0.00 0.00 0.00 1016.9
20260902093003 0 0.0 0.0 0.00 0.00 0.00 1016.9
20260902092502 0 0.0 0.0 0.00 0.00 0.00 1016.9
20260902092100 0 0.0 0.0 0.00 0.00 0.00 1016.9
20260902091614 0 0.0 0.0 0.00 0.00 0.00 1016.9
20260902091057 0 0.0 0.0 0.00 0.00 0.00 1016.9
20260902090556 0 0.0 0.0 0.00 0.00 0.00 1017.0
20260902085557 0 0.0 0.0 0.00 0.00 0.00 1016.9
20260902085052 0 0.0 0.0 0.00 0.00 0.00 1017.0
20260902084556 0 0.0 0.0 0.00 0.00 0.00 1017.0
20260902084049 0 0.0 0.0 0.00 0.00 0.00 1017.0
20260902083547 0 0.0 0.0 0.00 0.00 0.00 1016.9
20260902083101 0 0.0 0.0 0.00 0.00 0.00 1016.9
20260902082544 0 0.0 0.0 0.00 0.00 0.00 1017.0
20260902082043 0 0.0 0.0 0.00 0.00 0.00 1017.0
20260902081605 0 0.0 0.0 0.00 0.00 0.00 1017.0
20260902081040 0 0.0 0.0 0.00 0.00 0.00 1017.1
20260902080543 0 0.0 0.0 0.00 0.00 0.00 1017.2
20260902080048 0 0.0 0.0 0.00 0.00 0.00 1017.1
20260902075537 0 0.0 0.0 0.00 0.00 0.00 1017.2
20260902075034 0 18 0.0 0.0 0.00 0.00 0.00 1017.2
20260902074533 0 18 0.0 0.0 0.00 0.00 0.00 1017.1
20260902074033 75 358 0.0 0.0 0.00 0.00 0.00 76 1017.1
20260902073535 75 20 0.0 0.0 0.00 0.00 0.00 75 1017.1
20260902073031 75 320 0.0 0.0 0.00 0.00 0.00 75 1017.1
20260902072530 75 319 0.0 0.0 0.00 0.00 0.00 76 1017.2
20260902072030 75 359 0.0 0.0 0.00 0.00 0.00 75 1017.2
20260902071535 75 349 0.0 0.0 0.00 0.00 0.00 75 1017.2
20260902071030 75 333 0.0 0.0 0.00 0.00 0.00 75 1017.2
20260902070530 75 319 0.0 0.0 0.00 0.00 0.00 76 1017.2
20260902070034 75 338 0.0 0.0 0.00 0.00 0.00 76 1017.3
20260902065528 75 314 0.0 0.0 0.00 0.00 0.00 75 1017.2
20260902065027 74 322 0.0 0.0 0.00 0.00 0.00 74 1017.2
20260902064526 75 316 0.0 0.0 0.00 0.00 0.00 74 1017.2
20260902064027 75 343 0.0 0.0 0.00 0.00 0.00 74 1017.4
20260902063524 75 337 0.0 0.0 0.00 0.00 0.00 74 1017.4
20260902063024 75 311 0.0 0.0 0.00 0.00 0.00 73 1017.4
20260902062523 75 14 0.0 0.0 0.00 0.00 0.00 73 1017.4
20260902062022 75 333 0.0 0.0 0.00 0.00 0.00 72 1017.5
20260902061522 75 317 0.0 0.0 0.00 0.00 0.00 72 1017.5
20260902061035 75 323 0.0 0.0 0.00 0.00 0.00 72 1017.5
20260902060520 75 323 0.0 0.0 0.00 0.00 0.00 72 1017.6
20260902060022 75 349 0.0 0.0 0.00 0.00 0.00 72 1017.6
20260902055520 75 11 0.0 0.0 0.00 0.99 0.00 72 1017.6
20260902055019 75 354 0.0 0.0 0.00 0.99 0.00 71 1017.6
20260902054518 75 280 0.0 0.0 0.00 0.99 0.00 71 1017.8
20260902054019 75 280 0.0 0.0 0.00 0.99 0.00 71 1017.9
20260902053517 75 334 0.0 0.0 0.00 0.99 0.00 71 1017.9
20260902053016 75 334 0.0 0.0 0.00 0.99 0.00 71 1017.9
20260902052515 75 333 0.0 0.0 0.00 0.99 0.00 71 1018.1
20260902052015 75 335 0.0 0.0 0.00 0.99 0.00 71 1018.1
20260902051514 75 319 0.0 0.0 0.00 0.99 0.00 70 1018.1
20260902051018 76 337 0.0 0.0 0.00 0.99 0.00 70 1018.2
20260902050514 76 335 0.0 0.0 0.00 0.99 0.00 70 1018.2
20260902050019 76 343 0.0 0.0 0.00 0.99 0.00 71 1018.3
20260902045513 76 352 0.0 0.0 0.00 1.28 0.00 71 1018.2
20260902045013 75 22 0.0 0.0 0.00 1.28 0.00 70 1018.1
20260902044532 76 341 0.0 0.0 0.00 1.28 0.00 70 1018.2
20260902044013 76 341 0.0 0.0 0.00 1.28 0.00 71 1018.1
20260902043511 75 330 0.0 0.0 0.00 1.28 0.00 71 1018.1
20260902043011 76 354 0.0 0.0 0.00 1.28 0.00 71 1018.1
20260902042510 76 356 0.0 0.0 0.00 1.28 0.00 71 1018.2
20260902042010 76 35 0.0 0.0 0.00 1.28 0.00 70 1018.3
20260902041512 76 313 0.0 0.0 0.00 1.28 0.00 69 1018.4
20260902041011 76 314 0.0 0.0 0.00 1.28 0.00 69 1018.4
20260902040509 76 315 0.0 0.0 0.00 1.28 0.00 68 1018.5
20260902040005 76 319 0.0 0.0 0.00 1.28 0.00 68 1018.5
20260902035505 77 311 0.0 0.0 0.00 1.28 1.28 67 1018.5
20260902035004 77 317 0.0 0.0 0.00 1.28 1.28 67 1018.5
20260902034505 78 235 0.0 0.0 0.00 1.28 1.28 66 1018.5
20260902034008 78 169 0.0 0.0 0.00 1.28 1.28 66 1018.5
20260902033505 78 168 0.0 0.0 0.00 1.28 1.28 66 1018.5
20260902033004 78 166 0.0 0.0 0.00 1.28 1.28 66 1018.6
20260902032507 78 165 0.0 0.0 0.00 1.28 1.28 66 1018.4
20260902032003 78 165 0.0 0.0 0.00 1.28 1.28 67 1018.5
20260902031503 78 157 0.0 0.0 0.00 1.28 1.28 67 1018.3
20260902031003 78 210 0.0 0.0 0.00 1.28 1.28 67 1018.4
20260902030502 78 210 0.0 0.0 0.00 1.28 1.28 67 1018.4
20260902030005 78 212 0.0 0.0 0.00 1.28 1.28 67 1018.4
20260902025502 78 182 0.0 0.0 0.00 1.28 1.28 67 1018.5
20260902025002 78 104 0.0 0.0 0.00 1.28 1.28 67 1018.4
20260902024501 78 104 0.0 0.0 0.00 1.28 1.28 67 1018.4
20260902024001 78 109 0.0 0.0 0.00 1.28 1.28 67 1018.5
20260902023501 78 222 0.0 0.0 0.00 1.28 1.28 66 1018.6
20260902023001 78 297 0.0 0.0 0.00 1.28 1.28 67 1018.5
20260902022503 78 297 0.0 0.0 0.00 1.28 1.28 66 1018.5
20260902022001 77 311 0.0 0.0 0.00 1.28 1.28 66 1018.6
20260902021601 77 311 0.0 0.0 0.00 1.28 1.28 66 1018.6
20260902021100 78 311 0.0 0.0 0.00 1.28 1.28 66 1018.6
20260902020600 78 311 0.0 0.0 0.00 1.28 1.28 66 1018.6
20260902020136 78 318 0.0 0.0 0.00 1.28 1.28 65 1018.6
20260902015600 79 200 0.0 0.0 0.00 1.29 1.28 65 1018.5
20260902015100 79 182 0.0 0.0 0.00 1.29 1.28 65 1018.3
20260902014603 79 182 0.0 0.0 0.00 1.29 1.28 65 1018.3
20260902014059 79 182 0.0 0.0 0.00 1.29 1.28 64 1018.4
20260902013600 79 182 0.0 0.0 0.00 1.29 1.28 64 1018.3
20260902013102 79 182 0.0 0.0 0.00 1.29 1.28 64 1018.3
20260902012558 79 166 0.0 0.0 0.00 1.29 1.28 64 1018.2
20260902012100 79 207 0.0 0.0 0.00 1.29 1.28 63 1018.2
20260902011559 79 203 0.0 0.0 0.00 1.29 1.28 63 1018.2
20260902011059 79 198 0.0 0.0 0.00 1.29 1.28 62 1018.2
20260902010558 80 188 0.0 0.0 0.00 1.29 1.28 62 1018.0
20260902010058 80 208 0.0 0.0 0.00 1.29 1.28 61 1018.0
20260902005603 80 152 0.0 0.0 0.00 1.29 1.28 61 1017.8
20260902005058 80 165 0.0 0.0 0.00 1.29 1.28 60 1017.8
20260902004558 81 198 0.0 0.0 0.00 1.29 1.28 60 1017.8
20260902004057 81 175 0.0 0.0 0.00 1.29 1.28 60 1017.8
20260902003557 81 214 0.0 0.0 0.00 1.29 1.28 59 1017.8
20260902003102 81 112 0.0 5.0 0.00 1.29 1.28 59 1017.7
20260902002559 81 69 0.0 5.0 0.00 1.29 1.28 59 1017.7
20260902002055 80 96 0.0 0.0 0.00 1.29 1.28 62 1017.6
20260902001556 81 134 0.0 0.0 0.00 1.29 1.28 64 1017.6
20260902001055 81 145 0.0 0.0 0.00 1.29 1.28 65 1017.5
20260902000555 81 140 0.0 0.0 0.00 1.29 1.28 65 1017.5
20260902000055 81 152 0.0 0.0 0.00 1.29 1.28 65 1017.4
20260901235555 81 116 0.0 0.0 0.00 1.29 1.28 65 1017.5
20260901235054 81 125 0.0 0.0 0.00 1.29 1.28 64 1017.4
20260901234606 81 125 0.0 0.0 0.00 1.29 1.28 64 1017.4
20260901234057 81 125 0.0 0.0 0.00 1.29 1.28 64 1017.3
20260901233555 81 125 0.0 0.0 0.00 1.29 1.28 64 1017.2
20260901233057 81 125 0.0 0.0 0.00 1.29 1.28 64 1017.2
20260901232553 81 125 0.0 0.0 0.00 1.29 1.28 64 1017.2
20260901232053 81 108 0.0 0.0 0.00 1.29 1.28 63 1017.1
20260901231553 81 150 0.0 0.0 0.00 1.29 1.28 63 1017.0
20260901231052 81 119 0.0 0.0 0.00 1.29 1.28 63 1016.9
20260901230553 82 170 0.0 0.0 0.00 1.29 1.28 63 1016.8
20260901230055 82 136 0.0 0.0 0.00 1.29 1.28 63 1016.7
20260901225552 82 125 0.0 0.0 0.00 1.29 1.28 63 1016.7
20260901225052 82 86 0.0 0.0 0.00 1.29 1.28 63 1016.8
20260901224554 82 124 0.0 0.0 0.00 1.29 1.28 63 1016.7
20260901224052 82 98 0.0 0.0 0.00 1.29 1.28 63 1016.7
20260901223550 82 160 0.0 0.0 0.00 1.29 1.28 63 1016.7
20260901223059 82 118 0.0 0.0 0.00 1.29 1.28 63 1016.6
20260901222548 82 101 0.0 0.0 0.00 1.29 1.28 63 1016.6
20260901222048 82 104 0.0 0.0 0.00 1.29 1.28 63 1016.6
20260901221609 82 96 0.0 0.0 0.00 1.29 1.28 63 1016.6
20260901221048 83 105 0.0 3.0 0.00 1.29 1.28 63 1016.6
20260901220546 82 129 0.0 6.0 0.00 1.29 1.28 63 1016.7
20260901220046 83 167 0.0 6.0 0.00 1.29 1.28 63 1016.6
20260901215546 83 83 0.0 0.0 0.00 1.36 1.28 62 1016.7
20260901215046 83 143 0.0 0.0 0.00 1.36 1.28 62 1016.6
20260901214546 83 115 0.0 0.0 0.00 1.36 1.28 62 1016.5
20260901214045 83 89 0.0 3.0 0.00 1.36 1.28 62 1016.5
20260901213545 84 98 0.0 3.0 0.00 1.36 1.28 61 1016.4
20260901213046 84 115 0.0 3.0 0.00 1.36 1.28 61 1016.4
20260901212546 84 117 0.0 0.0 0.00 1.36 1.28 61 1016.3
20260901212043 84 136 0.0 0.0 0.00 1.36 1.28 61 1016.3
20260901211542 84 101 0.0 0.0 0.00 1.36 1.28 60 1016.4
20260901211042 85 78 0.0 0.0 0.00 1.36 1.28 60 1016.4
20260901210540 85 120 0.0 0.0 0.00 1.36 1.28 60 1016.4
20260901210040 85 110 0.0 0.0 0.00 1.36 1.28 59 1016.4
20260901205539 86 132 0.0 0.0 0.00 1.50 1.28 59 1016.3
20260901205038 86 166 0.0 0.0 0.00 1.50 1.28 58 1016.3
20260901204539 87 102 0.0 0.0 0.00 1.50 1.28 58 1016.3
20260901204037 87 96 0.0 1.0 0.00 1.50 1.28 57 1016.2
20260901203538 88 153 0.0 1.0 0.00 1.50 1.28 56 1016.2
20260901203048 88 105 0.0 1.0 0.00 1.50 1.28 55 1016.2
20260901202535 88 79 0.0 1.0 0.00 1.50 1.28 55 1016.2
20260901202034 88 127 0.0 0.0 0.00 1.50 1.28 54 1016.2
20260901201544 89 119 0.0 0.0 0.00 1.50 1.28 53 1016.2
20260901201033 88 152 0.0 0.0 0.00 1.50 1.28 53 1016.1
20260901200531 88 219 0.0 1.0 0.00 1.50 1.28 53 1016.2
20260901200033 88 106 0.0 1.0 0.00 1.50 1.28 53 1016.1
20260901195532 88 106 0.0 0.0 0.00 1.70 1.28 52 1016.1
20260901195029 88 163 0.0 0.0 0.00 1.70 1.28 52 1016.0
20260901194530 89 96 0.0 0.0 0.00 1.70 1.28 51 1016.0
20260901194030 89 99 0.0 0.0 0.00 1.70 1.28 51 1016.0
20260901193528 89 125 0.0 0.0 0.00 1.70 1.28 49 1015.9
20260901193027 89 94 0.0 0.0 0.00 1.70 1.28 50 1015.9
20260901192529 89 60 0.0 0.0 0.00 1.70 1.28 51 1015.9
20260901192032 89 132 0.0 1.0 0.00 1.70 1.28 51 1015.8
20260901191525 89 92 0.0 1.0 0.00 1.70 1.28 52 1016.0
20260901191026 89 131 0.0 1.0 0.00 1.70 1.28 51 1015.8
20260901190524 89 92 0.0 3.0 0.00 1.70 1.28 50 1015.8
20260901190023 89 103 0.0 3.0 0.00 1.70 1.28 51 1015.8
20260901185522 89 174 0.0 2.0 0.00 1.70 1.28 50 1015.8
20260901185021 89 115 0.0 1.0 0.00 1.70 1.28 51 1015.9
20260901184519 89 127 0.0 0.0 0.00 1.70 1.28 51 1016.1
20260901184019 88 163 0.0 0.0 0.00 1.70 1.28 52 1016.2
20260901183518 88 79 0.0 0.0 0.00 1.70 1.28 51 1016.3
20260901183015 89 86 0.0 0.0 0.00 1.70 1.28 52 1016.3
20260901182514 89 86 0.0 1.0 0.00 1.70 1.28 52 1016.5
20260901182013 89 104 0.0 4.0 0.00 1.70 1.28 51 1016.5
20260901181518 89 118 0.0 4.0 0.00 1.70 1.28 50 1016.4
20260901181012 90 120 0.0 1.0 0.00 1.70 1.28 51 1016.5
20260901180512 90 137 0.0 0.0 0.00 1.70 1.28 50 1016.5
20260901180011 90 194 0.0 0.0 0.00 1.70 1.28 46 1016.5
20260901175511 89 135 0.0 11.0 0.00 1.70 1.28 48 1016.6
20260901175013 89 127 0.0 11.0 0.00 1.70 1.28 47 1016.6
20260901174510 89 101 0.0 3.0 0.00 1.70 1.28 48 1016.7
20260901174009 89 133 0.0 2.0 0.00 1.70 1.28 50 1016.8
20260901173507 89 122 0.0 0.0 0.00 1.70 1.28 49 1016.9
20260901173006 89 185 0.0 1.0 0.00 1.70 1.28 52 1017.0
20260901172508 90 99 0.0 1.0 0.00 1.70 1.28 51 1017.2
20260901172007 90 110 0.0 1.0 0.00 1.70 1.28 50 1017.2
20260901171504 90 115 0.0 0.0 0.00 1.70 1.28 49 1017.3
20260901171004 90 110 0.0 0.0 0.00 1.70 1.28 50 1017.5
20260901170503 90 186 0.0 8.0 0.00 1.70 1.28 48 1017.5
20260901170104 90 150 0.0 8.0 0.00 1.70 1.28 50 1017.4
20260901165600 90 121 0.0 1.0 0.00 1.70 1.28 52 1017.5
20260901165100 89 136 0.0 0.0 0.00 1.70 1.28 53 1017.5
20260901164557 89 70 0.0 0.0 0.00 1.70 1.28 55 1017.5
20260901164055 88 186 0.0 1.0 0.00 1.70 1.28 69 1017.4
20260901163554 88 165 0.0 0.0 0.00 1.70 1.28 70 1017.4
20260901163054 88 124 0.0 5.0 0.00 1.70 1.28 70 1017.4
20260901162553 88 143 0.0 5.0 0.00 1.70 1.28 71 1017.4
20260901162050 87 99 0.0 5.0 0.00 1.70 1.28 72 1017.6
20260901161550 86 131 0.0 0.0 0.00 1.70 1.28 72 1017.6
20260901160550 87 66 0.0 4.0 0.00 1.70 1.28 71 1017.7
20260901160056 87 68 0.0 4.0 0.00 1.70 1.28 71 1017.8
20260901155546 87 149 0.0 4.0 0.00 1.70 1.28 70 1017.9
20260901155049 87 191 0.0 3.0 0.00 1.70 1.28 72 1017.9
20260901154543 87 141 0.0 3.0 0.00 1.70 1.28 72 1018.0
20260901154046 86 131 0.0 1.0 0.00 1.70 1.28 72 1018.1
20260901153541 86 162 0.0 2.0 0.00 1.70 1.28 73 1018.2
20260901153040 85 108 0.0 4.0 0.00 1.70 1.28 73 1018.2
20260901152538 85 115 0.0 2.0 0.00 1.70 1.28 73 1018.2
20260901152036 85 101 0.0 1.0 0.00 1.70 1.28 74 1018.2
20260901151535 85 86 0.0 5.0 0.00 1.70 1.28 74 1018.3
20260901151033 84 159 0.0 5.0 0.00 1.70 1.28 74 1018.3
20260901150532 84 56 0.0 5.0 0.00 1.70 1.28 74 1018.4
20260901150034 84 70 0.0 6.0 0.00 1.70 1.28 75 1018.4
20260901145531 84 126 0.0 9.0 0.00 1.70 1.28 75 1018.5
20260901145030 84 89 4.0 9.0 0.00 1.70 1.28 74 1018.5
20260901144530 84 153 2.0 8.0 0.00 1.70 1.28 75 1018.4
20260901144027 84 110 3.0 8.0 0.00 1.70 1.28 75 1018.5